FW2795 Weather Reports


time (UTC)temp
C
wind
direction
speed
KPH
gust
KPH
rain 1hr
cm
rain 24hr
cm
rain mn
cm
humidity
%
barometer
mb
20260502152253 21 166 3.2 4.8 0.00 0.00 0.00 52 1013.4
20260502151753 21 157 3.2 3.2 0.00 0.00 0.00 49 1013.3
20260502151308 21 195 0.0 4.8 0.00 0.00 0.00 49 1013.5
20260502150807 21 200 0.0 3.2 0.00 0.00 0.00 48 1013.7
20260502150307 21 198 1.6 3.2 0.00 0.00 0.00 47 1013.3
20260502130258 23 181 1.6 3.2 0.00 0.00 0.00 42 1015.5
20260502123755 23 190 1.6 3.2 0.00 0.00 0.00 42 1015.6
20260502123254 22 190 3.2 4.8 0.00 0.00 0.00 40 1015.8
20260502122754 22 220 3.2 3.2 0.00 0.00 0.00 39 1015.7
20260502122253 23 209 3.2 4.8 0.00 0.00 0.00 39 1015.9
20260502121753 22 198 3.2 3.2 0.00 0.00 0.00 42 1015.9
20260502121308 22 206 1.6 3.2 0.00 0.00 0.00 41 1016.0
20260502120807 21 194 1.6 3.2 0.00 0.00 0.00 44 1016.0
20260502120307 22 205 3.2 4.8 0.00 0.00 0.00 40 1016.0
20260502115807 22 191 4.8 8.0 0.00 0.00 0.00 39 1016.1
20260502115306 22 224 1.6 4.8 0.00 0.00 0.00 39 1016.2
20260502114756 22 231 3.2 6.4 0.00 0.00 0.00 43 1016.3
20260502114256 21 264 1.6 3.2 0.00 0.00 0.00 47 1016.5
20260502113755 21 257 3.2 3.2 0.00 0.00 0.00 48 1016.7
20260502113255 21 269 3.2 6.4 0.00 0.00 0.00 45 1016.7
20260502112755 21 268 3.2 4.8 0.00 0.00 0.00 46 1016.5
20260502112254 21 273 3.2 4.8 0.00 0.00 0.00 46 1016.4
20260502111754 21 277 1.6 3.2 0.00 0.00 0.00 49 1016.7
20260502111254 21 264 3.2 6.4 0.00 0.00 0.00 47 1016.7
20260502110808 21 253 3.2 4.8 0.00 0.00 0.00 47 1016.9
20260502110258 21 193 1.6 3.2 0.00 0.00 0.00 49 1016.9
20260502105758 21 195 3.2 6.4 0.00 0.00 0.00 48 1017.1
20260502105257 20 136 1.6 3.2 0.00 0.00 0.00 49 1016.9
20260502104757 20 159 3.2 4.8 0.00 0.00 0.00 50 1017.1
20260502104257 20 182 1.6 3.2 0.00 0.00 0.00 50 1017.3
20260502103757 20 199 3.2 4.8 0.00 0.00 0.00 50 1017.2
20260502103256 20 216 3.2 4.8 0.00 0.00 0.00 51 1017.4
20260502102756 20 184 3.2 6.4 0.00 0.00 0.00 52 1017.4
20260502102255 19 203 3.2 6.4 0.00 0.00 0.00 52 1017.3
20260502101755 19 167 3.2 6.4 0.00 0.00 0.00 52 1017.5
20260502101254 19 181 3.2 6.4 0.00 0.00 0.00 53 1017.5
20260502100755 19 186 1.6 3.2 0.00 0.00 0.00 53 1017.5
20260502100254 19 181 4.8 6.4 0.00 0.00 0.00 53 1017.5
20260502091259 18 188 3.2 3.2 0.00 0.00 0.00 59 1017.9
20260502090814 18 214 3.2 3.2 0.00 0.00 0.00 59 1018.1
20260502090303 18 224 4.8 6.4 0.00 0.00 0.00 61 1018.3
20260502071305 11 252 1.6 3.2 0.00 0.00 0.00 97 1019.1
20260502070805 10 231 0.0 1.6 0.00 0.00 0.00 97 1019.0
20260502070304 11 231 1.6 3.2 0.00 0.00 0.00 97 1018.8
20260502065804 10 202 1.6 3.2 0.00 0.00 0.00 98 1018.8
20260502065306 10 225 3.2 3.2 0.00 0.00 0.00 98 1018.9
20260502064753 10 225 0.0 0.0 0.00 0.00 0.00 98 1019.0
20260502064307 10 225 1.6 3.2 0.00 0.00 0.00 98 1019.0
20260502063806 10 225 0.0 3.2 0.00 0.00 0.00 98 1018.9
20260502063306 10 225 0.0 1.6 0.00 0.00 0.00 98 1018.9
20260502062806 10 225 0.0 3.2 0.00 0.00 0.00 98 1018.8
20260502062306 10 225 1.6 3.2 0.00 0.00 0.00 97 1018.8
20260502061805 10 240 1.6 3.2 0.00 0.00 0.00 97 1018.9
20260502061304 10 263 0.0 1.6 0.00 0.00 0.00 97 1018.9
20260502060804 10 244 0.0 1.6 0.00 0.00 0.00 98 1018.8
20260502060304 10 226 0.0 1.6 0.00 0.00 0.00 98 1018.9
20260502055803 9 223 0.0 3.2 0.00 0.00 0.00 98 1019.1
20260502055305 9 222 1.6 4.8 0.00 0.00 0.00 98 1018.9
20260502054802 9 205 1.6 3.2 0.00 0.00 0.00 98 1018.9
20260502053802 9 176 3.2 4.8 0.00 0.00 0.00 97 1018.7
20260502053302 9 179 1.6 3.2 0.00 0.00 0.00 97 1018.9
20260502052801 9 217 1.6 3.2 0.00 0.00 0.00 97 1019.0
20260502052301 9 225 0.0 3.2 0.00 0.00 0.00 97 1018.9
20260502051816 9 225 1.6 3.2 0.00 0.00 0.00 97 1018.9
20260502051305 9 230 0.0 0.0 0.00 0.00 0.00 97 1018.9
20260502050805 9 230 1.6 3.2 0.00 0.00 0.00 97 1018.9
20260502050255 9 248 3.2 3.2 0.00 0.00 0.00 97 1018.9
20260502045754 9 292 0.0 3.2 0.00 0.00 0.00 96 1019.0
20260502045254 9 298 0.0 3.2 0.00 0.00 0.00 96 1018.9
20260502044753 9 298 1.6 3.2 0.00 0.00 0.00 96 1018.8
20260502044308 9 308 0.0 3.2 0.00 0.00 0.00 96 1018.7
20260502043807 9 305 3.2 4.8 0.00 0.00 0.00 96 1018.8
20260502043307 9 298 1.6 3.2 0.00 0.00 0.00 96 1018.7
20260502042757 9 299 3.2 4.8 0.00 0.00 0.00 96 1018.9
20260502042256 9 271 0.0 1.6 0.00 0.00 0.00 96 1018.9
20260502041756 9 268 0.0 3.2 0.00 0.00 0.00 96 1018.7
20260502041255 9 268 1.6 6.4 0.00 0.00 0.00 96 1018.8
20260502040810 9 267 1.6 3.2 0.00 0.00 0.00 96 1018.9
20260502040300 10 258 3.2 4.8 0.00 0.00 0.00 96 1018.9
20260502035759 9 242 3.2 3.2 0.00 0.00 0.00 96 1018.8
20260502035313 9 225 1.6 4.8 0.00 0.00 0.00 96 1019.0
20260502034803 9 180 0.0 3.2 0.00 0.00 0.00 95 1018.9
20260502034302 9 180 0.0 1.6 0.00 0.00 0.00 95 1018.9
20260502033802 9 270 0.0 3.2 0.00 0.00 0.00 95 1019.0
20260502033301 9 270 0.0 1.6 0.00 0.00 0.00 95 1019.0
20260502032801 9 270 0.0 0.0 0.00 0.00 0.00 95 1019.2
20260502032300 9 270 0.0 1.6 0.00 0.00 0.00 95 1019.1
20260502031800 9 270 0.0 0.0 0.00 0.00 0.00 95 1019.2
20260502031300 9 270 1.6 3.2 0.00 0.00 0.00 95 1019.2
20260502030800 10 180 0.0 3.2 0.00 0.00 0.00 95 1019.2
20260502030259 10 180 0.0 1.6 0.00 0.00 0.00 95 1019.3
20260502025759 10 180 0.0 1.6 0.00 0.00 0.00 95 1019.2
20260502025314 10 180 0.0 1.6 0.00 0.00 0.00 94 1019.2
20260502024803 10 180 0.0 1.6 0.00 0.00 0.00 94 1019.1
20260502024303 10 180 0.0 1.6 0.00 0.00 0.00 94 1019.2
20260502023803 10 180 0.0 1.6 0.00 0.00 0.00 94 1019.3
20260502023302 10 180 0.0 1.6 0.00 0.00 0.00 94 1019.2
20260502022802 10 180 0.0 0.0 0.00 0.00 0.00 94 1019.4
20260502022305 10 180 0.0 1.6 0.00 0.00 0.00 94 1019.4
20260502021801 10 180 0.0 1.6 0.00 0.00 0.00 94 1019.3
20260502021301 10 180 0.0 1.6 0.00 0.00 0.00 93 1019.4
20260502020816 10 180 0.0 3.2 0.00 0.00 0.00 92 1019.4
20260502020305 10 180 0.0 1.6 0.00 0.00 0.00 93 1019.4
20260502015755 10 180 0.0 0.0 0.00 0.00 0.00 93 1019.3
20260502015254 10 180 0.0 0.0 0.00 0.00 0.00 93 1019.4
20260502014809 10 180 0.0 0.0 0.00 0.00 0.00 93 1019.3
20260502014314 10 180 0.0 0.0 0.00 0.00 0.00 92 1019.3
20260502013803 10 180 0.0 1.6 0.00 0.00 0.00 91 1019.4
20260502013303 10 180 0.0 1.6 0.00 0.00 0.00 91 1019.5
20260502012803 10 180 0.0 0.0 0.00 0.00 0.00 91 1019.6
20260502012306 10 180 0.0 0.0 0.00 0.00 0.00 91 1019.5
20260502011802 10 180 0.0 0.0 0.00 0.00 0.00 91 1019.6
20260502011301 10 180 0.0 0.0 0.00 0.00 0.00 91 1019.7
20260502010816 10 180 0.0 0.0 0.00 0.00 0.00 91 1019.6
20260502010305 10 180 0.0 1.6 0.00 0.00 0.00 90 1019.7
20260502005805 10 180 0.0 0.0 0.00 0.00 0.00 90 1019.7
20260502005306 10 270 0.0 0.0 0.00 0.00 0.00 90 1019.7
20260502004804 10 270 0.0 1.6 0.00 0.00 0.00 90 1019.7
20260502004254 11 270 0.0 0.0 0.00 0.00 0.00 90 1019.9
20260502003753 11 270 0.0 1.6 0.00 0.00 0.00 89 1020.1
20260502003253 11 279 0.0 1.6 0.00 0.00 0.00 89 1020.1
20260502002807 11 288 1.6 3.2 0.00 0.00 0.00 89 1020.0
20260502002307 11 304 0.0 3.2 0.00 0.00 0.00 89 1020.0
20260502001756 11 304 1.6 3.2 0.00 0.00 0.00 89 1020.2
20260502001256 11 335 0.0 3.2 0.00 0.00 0.00 88 1020.2
20260502000756 11 335 1.6 3.2 0.00 0.00 0.00 87 1020.3
20260502000310 11 342 1.6 3.2 0.00 0.00 0.00 87 1020.3
20260501235800 11 270 0.0 1.6 0.00 0.00 0.00 86 1020.4
20260501235259 11 270 0.0 1.6 0.00 0.00 0.00 86 1020.2
20260501234758 11 270 0.0 1.6 0.00 0.00 0.00 86 1020.3
20260501234258 11 270 0.0 3.2 0.00 0.00 0.00 86 1020.3
20260501233758 11 270 1.6 3.2 0.00 0.00 0.00 85 1020.3
20260501233257 11 277 1.6 3.2 0.00 0.00 0.00 85 1020.2
20260501232756 11 283 1.6 3.2 0.00 0.00 0.00 85 1020.3
20260501232256 11 315 0.0 1.6 0.00 0.00 0.00 84 1020.5
20260501231756 11 315 0.0 1.6 0.00 0.00 0.00 84 1020.3
20260501231310 11 293 0.0 1.6 0.00 0.00 0.00 83 1020.4
20260501230800 12 287 1.6 3.2 0.00 0.00 0.00 82 1020.4
20260501230259 12 263 0.0 1.6 0.00 0.00 0.00 82 1020.3
20260501225759 12 264 0.0 0.0 0.00 0.00 0.00 82 1020.3
20260501225258 12 265 0.0 1.6 0.00 0.00 0.00 81 1020.4
20260501224758 12 265 1.6 3.2 0.00 0.00 0.00 81 1020.4
20260501224258 12 270 1.6 3.2 0.00 0.00 0.00 81 1020.4
20260501223757 12 274 1.6 3.2 0.00 0.00 0.00 81 1020.5
20260501223257 12 262 1.6 3.2 0.00 0.00 0.00 80 1020.2
20260501222756 12 261 1.6 3.2 0.00 0.00 0.00 80 1020.5
20260501222256 12 256 1.6 3.2 0.00 0.00 0.00 80 1020.4
20260501221755 12 256 3.2 3.2 0.00 0.00 0.00 79 1020.3
20260501221310 12 277 1.6 3.2 0.00 0.00 0.00 79 1020.4
20260501220800 13 271 1.6 3.2 0.00 0.00 0.00 78 1020.4
20260501220300 13 271 3.2 4.8 0.00 0.00 0.00 78 1020.4
20260501215259 13 279 3.2 4.8 0.00 0.00 0.00 77 1020.4
20260501214759 13 288 1.6 3.2 0.00 0.00 0.00 76 1020.5
20260501214258 13 272 1.6 3.2 0.00 0.00 0.00 76 1020.4
20260501213758 13 256 1.6 3.2 0.00 0.00 0.00 76 1020.4
20260501213257 13 249 0.0 1.6 0.00 0.00 0.00 76 1020.4
20260501212757 13 249 1.6 3.2 0.00 0.00 0.00 75 1020.3
20260501212257 13 259 3.2 4.8 0.00 0.00 0.00 75 1020.4
20260501211756 14 225 1.6 3.2 0.00 0.00 0.00 75 1020.4
20260501211256 14 180 0.0 1.6 0.00 0.00 0.00 75 1020.5
20260501210755 14 180 0.0 1.6 0.00 0.00 0.00 75 1020.5
20260501210255 14 270 0.0 3.2 0.00 0.00 0.00 75 1020.4
20260501205809 15 270 0.0 1.6 0.00 0.00 0.00 74 1020.1
20260501205309 15 270 0.0 0.0 0.00 0.00 0.00 73 1020.3
20260501204808 15 270 0.0 0.0 0.00 0.00 0.00 72 1020.3
20260501204308 15 270 0.0 1.6 0.00 0.00 0.00 72 1020.1
20260501203757 15 270 1.6 3.2 0.00 0.00 0.00 72 1020.2
20260501203257 15 270 0.0 3.2 0.00 0.00 0.00 72 1020.3
20260501202756 15 270 1.6 3.2 0.00 0.00 0.00 71 1020.2
20260501202256 15 270 1.6 3.2 0.00 0.00 0.00 71 1020.2
20260501201755 15 260 1.6 3.2 0.00 0.00 0.00 71 1020.0
20260501201310 15 254 1.6 3.2 0.00 0.00 0.00 71 1020.0
20260501200800 15 235 3.2 3.2 0.00 0.00 0.00 71 1019.8
20260501200259 15 200 3.2 3.2 0.00 0.00 0.00 71 1020.0
20260501195759 15 171 0.0 1.6 0.00 0.00 0.00 70 1020.2
20260501195259 16 171 3.2 3.2 0.00 0.00 0.00 69 1019.8
20260501194758 16 169 1.6 3.2 0.00 0.00 0.00 68 1019.6
20260501194313 16 178 3.2 4.8 0.00 0.00 0.00 67 1019.7
20260501193802 16 248 3.2 4.8 0.00 0.00 0.00 67 1019.7
20260501193302 16 287 3.2 3.2 0.00 0.00 0.00 67 1019.5
20260501192801 17 259 0.0 1.6 0.00 0.00 0.00 65 1019.4
20260501192316 17 262 1.6 3.2 0.00 0.00 0.00 65 1019.4
20260501191805 17 260 3.2 4.8 0.00 0.00 0.00 64 1019.6
20260501191305 17 257 1.6 3.2 0.00 0.00 0.00 64 1019.7
20260501190805 17 249 3.2 4.8 0.00 0.00 0.00 63 1019.8
20260501190309 18 209 1.6 3.2 0.00 0.00 0.00 63 1019.7
20260501185809 18 255 1.6 3.2 0.00 0.00 0.00 62 1019.7
20260501185308 18 233 0.0 3.2 0.00 0.00 0.00 59 1019.5
20260501184808 19 227 1.6 3.2 0.00 0.00 0.00 59 1019.6
20260501184308 19 217 3.2 6.4 0.00 0.00 0.00 59 1019.6
20260501183808 19 233 3.2 6.4 0.00 0.00 0.00 59 1019.5
20260501183307 20 247 4.8 6.4 0.00 0.00 0.00 58 1019.5
20260501182807 20 193 3.2 4.8 0.00 0.00 0.00 57 1019.5
20260501182307 20 188 3.2 4.8 0.00 0.00 0.00 57 1019.6
20260501181806 20 205 6.4 12.9 0.00 0.00 0.00 56 1019.6
20260501181305 20 203 3.2 6.4 0.00 0.00 0.00 57 1019.7
20260501180805 20 215 3.2 6.4 0.00 0.00 0.00 57 1019.6
20260501180309 20 226 4.8 6.4 0.00 0.00 0.00 56 1019.4
20260501175759 20 248 4.8 6.4 0.00 0.00 0.00 56 1019.6
20260501175258 21 264 3.2 4.8 0.00 0.00 0.00 55 1019.6
20260501174813 21 264 6.4 14.5 0.00 0.00 0.00 54 1019.6
20260501174302 21 256 4.8 8.0 0.00 0.00 0.00 53 1019.7
20260501173802 21 264 6.4 8.0 0.00 0.00 0.00 53 1019.6
20260501173302 21 282 4.8 6.4 0.00 0.00 0.00 54 1019.7
20260501172801 22 275 6.4 12.9 0.00 0.00 0.00 53 1019.5
20260501172305 22 254 6.4 9.7 0.00 0.00 0.00 54 1019.7
20260501171801 22 252 6.4 14.5 0.00 0.00 0.00 53 1019.8
20260501171300 22 263 4.8 6.4 0.00 0.00 0.00 54 1019.7
20260501170815 22 277 3.2 6.4 0.00 0.00 0.00 53 1019.6
20260501170319 22 278 6.4 12.9 0.00 0.00 0.00 53 1019.5
20260501165809 22 231 4.8 9.7 0.00 0.00 0.00 53 1019.6
20260501165313 22 261 4.8 9.7 0.00 0.00 0.00 53 1019.5
20260501164802 22 236 6.4 11.3 0.00 0.00 0.00 53 1019.4
20260501164302 22 244 6.4 9.7 0.00 0.00 0.00 53 1019.6
20260501163802 23 270 6.4 11.3 0.00 0.00 0.00 55 1019.7
20260501163301 22 265 3.2 4.8 0.00 0.00 0.00 55 1019.5
20260501162816 22 284 6.4 11.3 0.00 0.00 0.00 56 1019.6
20260501162306 22 257 6.4 12.9 0.00 0.00 0.00 58 1019.5
20260501161805 21 225 6.4 8.0 0.00 0.00 0.00 59 1019.7
20260501161305 22 230 4.8 9.7 0.00 0.00 0.00 57 1019.8
20260501160804 22 267 6.4 11.3 0.00 0.00 0.00 58 1019.8
20260501160304 22 288 6.4 8.0 0.00 0.00 0.00 58 1019.6
20260501155818 22 261 6.4 11.3 0.00 0.00 0.00 56 1019.6
20260501155308 23 298 3.2 6.4 0.00 0.00 0.00 58 1019.7